Location: Wooded Hills
(32.5240°N, 97.2692°W)
Time: 14:57:33
(UTC+00:00)

Tiangong - Visible Passes

Search period start: 05 October 2022 00:00
Search period end: 15 October 2022 00:00
Orbit: 382 x 386 km, 41.5° (Epoch: 05 October)

Date Brightness Start Highest point End Pass type
(mag) Time Alt. Az. Time Alt. Az. Time Alt. Az.
05 Oct 0.0 01:40:29 10° SSW 01:41:34 18° SSW 01:41:34 18° SSW visible
06 Oct -0.1 00:41:48 10° S 00:43:36 14° SE 00:45:12 11° ESE visible
06 Oct 1.0 02:17:00 10° WSW 02:17:26 13° WSW 02:17:26 13° WSW visible
07 Oct -2.1 01:17:12 10° SW 01:20:18 60° SSE 01:20:53 48° E visible
08 Oct -0.3 01:54:17 10° W 01:56:23 30° WNW 01:56:23 30° WNW visible
09 Oct -1.9 00:54:07 10° WSW 00:57:14 67° NNW 00:59:31 17° NE visible
10 Oct -0.4 01:31:34 10° WNW 01:34:14 25° NNW 01:34:42 24° N visible
11 Oct -1.0 00:31:07 10° W 00:34:05 37° NNW 00:37:03 10° NE visible
11 Oct 1.1 02:09:19 10° NW 02:09:46 12° NW 02:09:46 12° NW visible
12 Oct 0.0 01:08:45 10° WNW 01:11:07 19° N 01:12:32 15° NNE visible
13 Oct 0.5 01:46:14 10° NW 01:47:25 14° NNW 01:47:25 14° NNW visible
14 Oct 0.2 00:45:43 10° NW 00:47:51 16° N 00:49:58 10° NE visible
